Location: Newark
(48.4472°N, 1.4892°E)
Time: 10:48:35
(UTC+00:00)

Transit 4A - Pass Details

Date: 17 January 2021
Orbit: 866 x 978 km, 66.8° (Epoch: 26 February)

Event Time Altitude Azimuth Distance (km) Brightness Sun altitude
Exits shadow 06:46:07 10° 301° (WNW) 2,653 9.6 -8.7°
Maximum altitude 06:50:33 21° 255° (WSW) 1,940 9.1 -8.0°
Drops below altitude 10° 06:54:55 10° 208° (SSW) 2,587 10.2 -7.4°
Sets 06:57:57 0° 193° (SSW) 3,503 11.1 -6.9°
